Location: Asbacherhof
(48.8543°N, 10.7903°E)
Time: 21:31:07
(UTC+00:00)

Cosmos 1378 Rocket - Pass Details

Date: 26 May 2022
Orbit: 600 x 627 km, 82.5° (Epoch: 29 June)

Event Time Altitude Azimuth Distance (km) Brightness Sun altitude
Exits shadow 00:22:23 32° 236° (SW) 1,071 4.4 -18.4°
Maximum altitude 00:23:55 45° 285° (WNW) 855 4.2 -18.3°
Drops below altitude 10° 00:28:12 10° 359° (N) 2,012 7.3 -18.1°
Sets 00:30:32 0° 5° (N) 2,926 8.5 -18.0°
